Regional Weather Roundup
Issued by NWS San Diego, CA

Home | Current Version | Previous Version | Text Only | Print | Product List | Glossary On
Versions: 1 2 3 4 5 6 7 8 9 10 11 12 13 14 15 16 17 18 19 20 21 22 23 24 25 26 27 28 29 30 31 32 33 34 35 36 37 38 39 40 41 42 43 44 45 46 47 48 49 50
730
ASUS46 KSGX 240711
RWRSGX

SAN DIEGO HOURLY WEATHER ROUNDUP
NATIONAL WEATHER SERVICE SAN DIEGO CA
1100 PM PST MON JAN 23 2017

NOTE: "FAIR" INDICATES FEW OR NO CLOUDS BELOW 12,000 FEET WITH NO
SIGNIFICANT WEATHER AND/OR OBSTRUCTIONS TO VISIBILITY.

CAZ042-043-060-061-PZZ750-775-240800-

GREATER SAN DIEGO AREA

CITY           SKY/WX    TMP DP  RH WIND       PRES   REMARKS
SAN DIEGO AP   LGT RAIN  53  41  63 W9        29.96R
NATIONAL CITY    N/A     52  44  74 CALM      29.95R
CHULA VISTA      N/A     48  45  91 CALM      29.87R
IMPERIAL BEACH MOCLDY    53  43  68 W23G29    29.96R
BROWN FIELD    LGT RAIN  47  45  93 S5        29.95R
MIRAMAR MCAS   MOCLDY    50  44  80 SW5       29.93R
MONTGOMERY FLD LGT RAIN  47  43  86 SE3       29.94R

$$

NORTH SAN DIEGO COUNTY

CITY           SKY/WX    TMP DP  RH WIND       PRES   REMARKS
CAMP PENDLETON MOCLDY    46  45  96 CALM      29.93R
OCEANSIDE AP   CLOUDY    48  47  96 N3        29.93R
OCEANSIDE HBR    N/A     49  46  90 NE2       29.95R
VISTA            N/A     46  41  82 CALM      29.92R
CARLSBAD       LGT RAIN  48  46  93 VRB3      29.92R
DEL MAR          N/A     50  45  83 NW1       29.96R
LA JOLLA SCRIP   N/A     54  46  75 W10       29.94R
FALLBROOK        N/A     44  44 100 SE5       29.92R
ESCONDIDO        N/A     45  43  91 SW5       29.96R
SAN MARCOS       N/A     45  41  86 E1        29.96R
POWAY            N/A     44  42  92 CALM      29.96R

$$

EAST SAN DIEGO COUNTY

CITY           SKY/WX    TMP DP  RH WIND       PRES   REMARKS
RAMONA         LGT RAIN  42  42 100 SE3       29.92R
SANTEE LAKES     N/A     46  44  92 CALM      29.94R
LA MESA          N/A     45  43  93 CALM      29.89R
JAMUL            N/A     43  41  94 CALM      29.96R
DESCANSO N       N/A     33  32  96 W1        29.90R
CAMPO            N/A     38  37  97 S6        29.86R WCI  33

$$

ORANGE COUNTY AND THE LOS ANGELES BASIN

CITY           SKY/WX    TMP DP  RH WIND       PRES   REMARKS
JOHN WAYNE AP  PTCLDY    47  42  83 CALM      29.92R
LAGUNA BEACH     N/A     46  42  85 NW3       29.87R
LAKE FOREST FR   N/A     43  38  85 CALM      29.83R
HUNTINGTON BCH   N/A     45  42  89 NW1       29.93R
LOS ALAMITOS   FAIR      44  42  91 CALM      29.91R
FULLERTON      CLEAR     44  42  93 CALM      29.91R
LONG BEACH     CLEAR     47  40  76 CALM      29.91R
L.A. AP        PTCLDY    49  38  65 N6        29.91R
L.A. DOWNTOWN  CLEAR     46  41  82 CALM      29.91R

$$

THE INLAND EMPIRE

CITY           SKY/WX    TMP DP  RH WIND       PRES   REMARKS
CORONA         PTCLDY    39  39 100 CALM      29.92R
CHINO          CLOUDY    44  41  89 CALM      29.92R
ONTARIO        MOCLDY    44  43  96 NE5       29.90R
SAN BERNARDINO CLOUDY    45  38  78 SE5       29.90R
RIVERSIDE AP   CLOUDY    44  44 100 W3        29.90R
MORENO VALLEY    N/A     42  41  99 SE6       28.01R
MARCH ARB      PTCLDY    42  42 100 S5        29.89R
HORSETHIEF CYN   N/A     39  34  82 CALM      29.92R
PERRIS           N/A     42  41  96 CALM      29.92R
HEMET EAST       N/A     40  35  83 CALM      29.97R
FRENCH VALLEY  NOT AVBL
TEMECULA         N/A     43  42  98 S3        29.96R

$$

SAN BERNARDINO AND RIVERSIDE COUNTY MOUNTAINS

CITY           SKY/WX    TMP DP  RH WIND       PRES   REMARKS
BIG BEAR AP    PTCLDY     9   5  85 CALM      29.76S FOG
PINE COVE        N/A     25  24  98 CALM      29.90R

$$

SOUTHERN DESERT INCLUDING THE COACHELLA VALLEY

CITY           SKY/WX    TMP DP  RH WIND       PRES   REMARKS
PALM SPRINGS   CLEAR     42  40  92 SW6       29.84R
PALM DESERT      N/A     44  39  83 CALM      26.89S
THERMAL        CLEAR     43  38  82 CALM      29.83R
BLYTHE         CLEAR     48  40  73 SW7       29.82S
IMPERIAL AP    CLEAR     47  37  68 W9        29.85S
EL CENTRO NAS  PTCLDY    48  36  63 CALM      29.88R
YUMA AZ        CLEAR     50  36  58 NW6       29.85
MEXICALI       CLEAR     50  36  57 N5        29.87S

$$

UPPER DESERT

CITY           SKY/WX    TMP DP  RH WIND       PRES   REMARKS
VICTORVILLE AP CLEAR     36  27  69 W5        29.85R WCI  32
HESPERIA         N/A     33  31  91 W3        30.04R
PALMDALE       CLEAR     39  29  67 SW8       29.86R WCI  33
LANCASTER      CLEAR     37  30  75 SW12      29.87R WCI  29
EDWARDS AFB    CLEAR     37  28  69 W9        29.83R WCI  31
DAGGETT        CLEAR     39  31  72 W12       29.82R WCI  32
29 PALMS N     CLEAR     40  29  64 W9        29.87R WCI  34
NEEDLES        CLEAR     49  35  58 W10       29.78R

$$

REGIONAL REPORTS

CITY           SKY/WX    TMP DP  RH WIND       PRES   REMARKS
SANTA BARBARA  CLEAR     45  40  82 CALM      29.94R
SANDBERG       CLOUDY    32  28  85 NW18      29.84R WCI  20
LAS VEGAS NV   MOCLDY    43  31  62 S6        29.72R
PHOENIX AZ     CLOUDY    49  42  77 CALM      29.79S
TIJUANA        RAIN      46  41  81 CALM      29.96R
ENSENADA NW      N/A     49  32  51 NE3       29.96R

$$

OFFSHORE ISLANDS

CITY           SKY/WX    TMP DP  RH WIND       PRES   REMARKS
CATALINA ARPT  PTCLDY    45  39  79 W21G26    29.90R
SAN NICOLAS IS CLEAR     47  46  97 W15       29.95R

$$

MARINE AND OFFSHORE BUOY REPORTS

STATION/POSITION SKY/WX   TEMP    WIND        PRES    VSBY  SWELL
                          AIR SEA DIR/SP/G                  HT/PER/DIR
                          (F)     (DEG/KT/KT) (MB)    (MI)  (FT/S/D)
TANNER BANKS               54 58  300/ 17/ 21 1015.1R        13/310/14
S CLEMENTE BASIN           55 60  290/ 19/ 23 1014.1R        11/290/15
SAN NICOLAS IS.               57                N/A          13/270/15
SO. S. ROSA ISLA           53 56  280/ 17/ 21 1014.3R        18/290/15
W. S. BARBARA CH           53 56  290/ 16/ 19 1014.4R        18/300/15
M. S. BARBARA CH                  300/ 14/ 17 1014.5R
S. MONICA BASIN            54 58  290/ 19/ 25 1013.0R         8/280/15
S PEDRO CHANNEL               58                N/A           7/270/13
CMP PENDLETON NS              58                N/A           5/240/15
OCEANSIDE OFFSHR              59                N/A           7/240/14
TORREY PINES OTR              59                N/A           7/260/14
POINT LOMA SOUTH              60                N/A          10/260/14

$$





USA.gov is the U.S. government's official web portal to all federal, state and local government web resources and services.